Time,TemperatureF,DewpointF,PressureIn,WindDirection,WindDirectionDegrees,WindSpeedMPH,WindSpeedGustMPH,Humidity,HourlyPrecipIn,Conditions,Clouds,dailyrainin,SoftwareType,DateUTC
2013-05-23 00:03:00,53.0,-99.9,-100.00,North,-999,-999.0,-999.0,-999,0.00,,,1.26,,2013-05-23 04:03:00,
2013-05-23 00:12:00,53.0,-99.9,-100.00,North,-999,-999.0,-999.0,-999,0.00,,,1.26,,2013-05-23 04:12:00,
2013-05-23 00:23:00,53.0,-99.9,-100.00,North,-999,-999.0,-999.0,-999,0.00,,,1.26,,2013-05-23 04:23:00,
2013-05-23 00:30:00,54.0,-99.9,-100.00,North,-999,-999.0,-999.0,-999,0.00,,,0.92,,2013-05-23 04:30:00,
2013-05-23 00:53:00,54.0,-99.9,-100.00,North,-999,-999.0,-999.0,-999,0.00,,,0.92,,2013-05-23 04:53:00,
2013-05-23 01:03:00,54.0,-99.9,-100.00,North,-999,-999.0,-999.0,-999,0.00,,,0.92,,2013-05-23 05:03:00,
2013-05-23 01:12:00,54.0,-99.9,-100.00,North,-999,-999.0,-999.0,-999,0.00,,,0.92,,2013-05-23 05:12:00,
2013-05-23 01:22:00,54.0,-99.9,-100.00,North,-999,-999.0,-999.0,-999,0.00,,,0.92,,2013-05-23 05:22:00,
2013-05-23 01:30:00,52.0,-99.9,-100.00,North,-999,-999.0,-999.0,-999,0.00,,,0.79,,2013-05-23 05:30:00,
2013-05-23 01:52:00,52.0,-99.9,-100.00,North,-999,-999.0,-999.0,-999,0.00,,,0.79,,2013-05-23 05:52:00,
2013-05-23 02:02:00,52.0,-99.9,-100.00,North,-999,-999.0,-999.0,-999,0.00,,,0.79,,2013-05-23 06:02:00,
2013-05-23 02:12:00,52.0,-99.9,-100.00,North,-999,-999.0,-999.0,-999,0.00,,,0.79,,2013-05-23 06:12:00,
2013-05-23 02:22:00,52.0,-99.9,-100.00,North,-999,-999.0,-999.0,-999,0.00,,,0.79,,2013-05-23 06:22:00,
2013-05-23 02:30:00,52.0,-99.9,-100.00,North,-999,-999.0,-999.0,-999,0.00,,,0.58,,2013-05-23 06:30:00,
2013-05-23 02:52:00,52.0,-99.9,-100.00,North,-999,-999.0,-999.0,-999,0.00,,,0.58,,2013-05-23 06:52:00,
2013-05-23 03:02:00,52.0,-99.9,-100.00,North,-999,-999.0,-999.0,-999,0.00,,,0.58,,2013-05-23 07:02:00,
2013-05-23 03:12:00,52.0,-99.9,-100.00,North,-999,-999.0,-999.0,-999,0.00,,,0.58,,2013-05-23 07:12:00,
2013-05-23 03:22:00,52.0,-99.9,-100.00,North,-999,-999.0,-999.0,-999,0.00,,,0.58,,2013-05-23 07:22:00,
2013-05-23 03:30:00,52.0,-99.9,-100.00,North,-999,-999.0,-999.0,-999,0.00,,,0.24,,2013-05-23 07:30:00,
2013-05-23 04:02:00,52.0,-99.9,-100.00,North,-999,-999.0,-999.0,-999,0.00,,,0.24,,2013-05-23 08:02:00,
2013-05-23 04:12:00,52.0,-99.9,-100.00,North,-999,-999.0,-999.0,-999,0.00,,,0.24,,2013-05-23 08:12:00,
2013-05-23 04:22:00,52.0,-99.9,-100.00,North,-999,-999.0,-999.0,-999,0.00,,,0.24,,2013-05-23 08:22:00,
2013-05-23 04:52:00,52.0,-99.9,-100.00,North,-999,-999.0,-999.0,-999,0.00,,,0.11,,2013-05-23 08:52:00,
2013-05-23 05:02:00,52.0,-99.9,-100.00,North,-999,-999.0,-999.0,-999,0.00,,,0.11,,2013-05-23 09:02:00,
2013-05-23 05:11:00,52.0,-99.9,-100.00,North,-999,-999.0,-999.0,-999,0.00,,,0.11,,2013-05-23 09:11:00,
2013-05-23 05:22:00,52.0,-99.9,-100.00,North,-999,-999.0,-999.0,-999,0.00,,,0.11,,2013-05-23 09:22:00,
2013-05-23 05:30:00,51.0,-99.9,-100.00,North,-999,-999.0,-999.0,-999,0.00,,,0.11,,2013-05-23 09:30:00,
2013-05-23 05:33:00,52.0,-99.9,-100.00,North,-999,-999.0,-999.0,-999,0.00,,,0.11,,2013-05-23 09:33:00,
2013-05-23 05:43:00,52.0,-99.9,-100.00,North,-999,-999.0,-999.0,-999,0.00,,,0.11,,2013-05-23 09:43:00,
2013-05-23 05:53:00,51.0,-99.9,-100.00,North,-999,-999.0,-999.0,-999,0.00,,,0.11,,2013-05-23 09:53:00,
2013-05-23 06:03:00,51.0,-99.9,-100.00,North,-999,-999.0,-999.0,-999,0.00,,,0.11,,2013-05-23 10:03:00,
2013-05-23 06:13:00,51.0,-99.9,-100.00,North,-999,-999.0,-999.0,-999,0.00,,,0.11,,2013-05-23 10:13:00,
2013-05-23 06:22:00,51.0,-99.9,-100.00,North,-999,-999.0,-999.0,-999,0.00,,,0.11,,2013-05-23 10:22:00,
2013-05-23 06:30:00,52.0,-99.9,-100.00,North,-999,-999.0,-999.0,-999,0.01,,,-99.99,,2013-05-23 10:30:00,
2013-05-23 06:53:00,52.0,-99.9,-100.00,North,-999,-999.0,-999.0,-999,0.01,,,-99.99,,2013-05-23 10:53:00,
2013-05-23 07:03:00,52.0,-99.9,-100.00,North,-999,-999.0,-999.0,-999,0.01,,,-99.99,,2013-05-23 11:03:00,
2013-05-23 07:12:00,52.0,-99.9,-100.00,North,-999,-999.0,-999.0,-999,0.01,,,-99.99,,2013-05-23 11:12:00,
2013-05-23 07:22:00,52.0,-99.9,-100.00,North,-999,-999.0,-999.0,-999,0.01,,,-99.99,,2013-05-23 11:22:00,
2013-05-23 07:30:00,54.0,-99.9,-100.00,North,-999,-999.0,-999.0,-999,0.00,,,-99.99,,2013-05-23 11:30:00,
2013-05-23 08:02:00,54.0,-99.9,-100.00,North,-999,-999.0,-999.0,-999,0.00,,,-99.99,,2013-05-23 12:02:00,
2013-05-23 08:12:00,54.0,-99.9,-100.00,North,-999,-999.0,-999.0,-999,0.00,,,-99.99,,2013-05-23 12:12:00,
2013-05-23 08:22:00,54.0,-99.9,-100.00,North,-999,-999.0,-999.0,-999,0.00,,,-99.99,,2013-05-23 12:22:00,
2013-05-23 08:30:00,54.0,-99.9,-100.00,North,-999,-999.0,-999.0,-999,0.00,,,-99.99,,2013-05-23 12:30:00,
2013-05-23 09:02:00,54.0,-99.9,-100.00,North,-999,-999.0,-999.0,-999,0.00,,,-99.99,,2013-05-23 13:02:00,
2013-05-23 09:12:00,54.0,-99.9,-100.00,North,-999,-999.0,-999.0,-999,0.00,,,-99.99,,2013-05-23 13:12:00,
2013-05-23 09:22:00,54.0,-99.9,-100.00,North,-999,-999.0,-999.0,-999,0.00,,,-99.99,,2013-05-23 13:22:00,
2013-05-23 09:30:00,58.0,-99.9,-100.00,North,-999,-999.0,-999.0,-999,0.06,,,-99.99,,2013-05-23 13:30:00,
2013-05-23 09:52:00,58.0,-99.9,-100.00,North,-999,-999.0,-999.0,-999,0.06,,,-99.99,,2013-05-23 13:52:00,
2013-05-23 10:02:00,58.0,-99.9,-100.00,North,-999,-999.0,-999.0,-999,0.06,,,-99.99,,2013-05-23 14:02:00,
2013-05-23 10:12:00,58.0,-99.9,-100.00,North,-999,-999.0,-999.0,-999,0.06,,,-99.99,,2013-05-23 14:12:00,
2013-05-23 10:22:00,58.0,-99.9,-100.00,North,-999,-999.0,-999.0,-999,0.06,,,-99.99,,2013-05-23 14:22:00,
2013-05-23 11:02:00,65.0,-99.9,-100.00,North,-999,-999.0,-999.0,-999,0.00,,,-99.99,,2013-05-23 15:02:00,
2013-05-23 11:12:00,65.0,-99.9,-100.00,North,-999,-999.0,-999.0,-999,0.00,,,-99.99,,2013-05-23 15:12:00,
2013-05-23 11:22:00,67.0,-99.9,-100.00,North,-999,-999.0,-999.0,-999,0.00,,,0.17,,2013-05-23 15:22:00,
2013-05-23 11:30:00,70.0,-99.9,-100.00,North,-999,-999.0,-999.0,-999,0.00,,,0.17,,2013-05-23 15:30:00,
2013-05-23 11:33:00,67.0,-99.9,-100.00,North,-999,-999.0,-999.0,-999,0.00,,,0.17,,2013-05-23 15:33:00,
2013-05-23 11:43:00,67.0,-99.9,-100.00,North,-999,-999.0,-999.0,-999,0.00,,,0.17,,2013-05-23 15:43:00,
2013-05-23 11:54:00,70.0,-99.9,-100.00,North,-999,-999.0,-999.0,-999,0.00,,,0.17,,2013-05-23 15:54:00,
2013-05-23 12:03:00,70.0,-99.9,-100.00,North,-999,-999.0,-999.0,-999,0.00,,,0.17,,2013-05-23 16:03:00,
2013-05-23 12:13:00,70.0,-99.9,-100.00,North,-999,-999.0,-999.0,-999,0.00,,,0.17,,2013-05-23 16:13:00,
2013-05-23 12:23:00,70.0,-99.9,-100.00,North,-999,-999.0,-999.0,-999,0.00,,,0.17,,2013-05-23 16:23:00,
2013-05-23 12:30:00,68.0,-99.9,-100.00,North,-999,-999.0,-999.0,-999,0.00,,,0.17,,2013-05-23 16:30:00,
2013-05-23 12:53:00,68.0,-99.9,-100.00,North,-999,-999.0,-999.0,-999,0.00,,,0.17,,2013-05-23 16:53:00,
2013-05-23 13:03:00,68.0,-99.9,-100.00,North,-999,-999.0,-999.0,-999,0.00,,,0.17,,2013-05-23 17:03:00,
2013-05-23 13:12:00,68.0,-99.9,-100.00,North,-999,-999.0,-999.0,-999,0.00,,,0.17,,2013-05-23 17:12:00,
2013-05-23 13:23:00,68.0,-99.9,-100.00,North,-999,-999.0,-999.0,-999,0.00,,,0.17,,2013-05-23 17:23:00,
2013-05-23 13:30:00,72.0,-99.9,-100.00,North,-999,-999.0,-999.0,-999,0.00,,,0.17,,2013-05-23 17:30:00,
2013-05-23 13:53:00,72.0,-99.9,-100.00,North,-999,-999.0,-999.0,-999,0.00,,,0.17,,2013-05-23 17:53:00,
2013-05-23 14:02:00,72.0,-99.9,-100.00,North,-999,-999.0,-999.0,-999,0.00,,,0.17,,2013-05-23 18:02:00,
2013-05-23 14:12:00,72.0,-99.9,-100.00,North,-999,-999.0,-999.0,-999,0.00,,,0.17,,2013-05-23 18:12:00,
2013-05-23 14:22:00,72.0,-99.9,-100.00,North,-999,-999.0,-999.0,-999,0.00,,,0.17,,2013-05-23 18:22:00,
2013-05-23 14:30:00,70.0,-99.9,-100.00,North,-999,-999.0,-999.0,-999,0.00,,,0.17,,2013-05-23 18:30:00,
2013-05-23 14:52:00,70.0,-99.9,-100.00,North,-999,-999.0,-999.0,-999,0.00,,,0.17,,2013-05-23 18:52:00,
2013-05-23 15:02:00,70.0,-99.9,-100.00,North,-999,-999.0,-999.0,-999,0.00,,,0.17,,2013-05-23 19:02:00,
2013-05-23 15:11:00,70.0,-99.9,-100.00,North,-999,-999.0,-999.0,-999,0.00,,,0.17,,2013-05-23 19:11:00,
2013-05-23 15:22:00,70.0,-99.9,-100.00,North,-999,-999.0,-999.0,-999,0.00,,,0.17,,2013-05-23 19:22:00,
2013-05-23 15:30:00,67.0,-99.9,-100.00,North,-999,-999.0,-999.0,-999,0.05,,,0.22,,2013-05-23 19:30:00,
2013-05-23 15:52:00,67.0,-99.9,-100.00,North,-999,-999.0,-999.0,-999,0.05,,,0.22,,2013-05-23 19:52:00,
2013-05-23 16:02:00,67.0,-99.9,-100.00,North,-999,-999.0,-999.0,-999,0.05,,,0.22,,2013-05-23 20:02:00,
2013-05-23 16:12:00,67.0,-99.9,-100.00,North,-999,-999.0,-999.0,-999,0.05,,,0.22,,2013-05-23 20:12:00,
2013-05-23 16:22:00,67.0,-99.9,-100.00,North,-999,-999.0,-999.0,-999,0.05,,,0.22,,2013-05-23 20:22:00,
2013-05-23 16:30:00,66.0,-99.9,-100.00,North,-999,-999.0,-999.0,-999,0.04,,,0.26,,2013-05-23 20:30:00,
2013-05-23 16:52:00,66.0,-99.9,-100.00,North,-999,-999.0,-999.0,-999,0.04,,,0.26,,2013-05-23 20:52:00,
2013-05-23 17:02:00,66.0,-99.9,-100.00,North,-999,-999.0,-999.0,-999,0.04,,,0.26,,2013-05-23 21:02:00,
2013-05-23 17:11:00,66.0,-99.9,-100.00,North,-999,-999.0,-999.0,-999,0.04,,,0.26,,2013-05-23 21:11:00,
2013-05-23 17:22:00,66.0,-99.9,-100.00,North,-999,-999.0,-999.0,-999,0.04,,,0.26,,2013-05-23 21:22:00,
2013-05-23 17:30:00,68.0,-99.9,-100.00,North,-999,-999.0,-999.0,-999,99.99,,,99.99,,2013-05-23 21:30:00,
2013-05-23 17:53:00,68.0,-99.9,-100.00,North,-999,-999.0,-999.0,-999,99.99,,,99.99,,2013-05-23 21:53:00,
2013-05-23 18:03:00,68.0,-99.9,-100.00,North,-999,-999.0,-999.0,-999,99.99,,,99.99,,2013-05-23 22:03:00,
2013-05-23 18:12:00,68.0,-99.9,-100.00,North,-999,-999.0,-999.0,-999,99.99,,,99.99,,2013-05-23 22:12:00,
2013-05-23 18:23:00,68.0,-99.9,-100.00,North,-999,-999.0,-999.0,-999,99.99,,,99.99,,2013-05-23 22:23:00,
2013-05-23 18:52:00,66.0,-99.9,-100.00,North,-999,-999.0,-999.0,-999,-99.99,,,0.22,,2013-05-23 22:52:00,
2013-05-23 19:02:00,66.0,-99.9,-100.00,North,-999,-999.0,-999.0,-999,-99.99,,,0.22,,2013-05-23 23:02:00,
2013-05-23 19:12:00,66.0,-99.9,-100.00,North,-999,-999.0,-999.0,-999,-99.99,,,0.22,,2013-05-23 23:12:00,
2013-05-23 19:22:00,66.0,-99.9,-100.00,North,-999,-999.0,-999.0,-999,-99.99,,,0.22,,2013-05-23 23:22:00,
2013-05-23 19:30:00,64.0,-99.9,-100.00,North,-999,-999.0,-999.0,-999,0.15,,,0.37,,2013-05-23 23:30:00,
2013-05-23 19:53:00,64.0,-99.9,-100.00,North,-999,-999.0,-999.0,-999,0.15,,,0.37,,2013-05-23 23:53:00,
2013-05-23 20:01:00,64.0,-99.9,-100.00,North,-999,-999.0,-999.0,-999,0.15,,,0.37,,2013-05-24 00:01:00,
2013-05-23 20:12:00,64.0,-99.9,-100.00,North,-999,-999.0,-999.0,-999,0.15,,,0.37,,2013-05-24 00:12:00,
2013-05-23 20:22:00,64.0,-99.9,-100.00,North,-999,-999.0,-999.0,-999,0.15,,,0.37,,2013-05-24 00:22:00,
2013-05-23 20:30:00,63.0,-99.9,-100.00,North,-999,-999.0,-999.0,-999,0.11,,,0.48,,2013-05-24 00:30:00,
2013-05-23 20:52:00,63.0,-99.9,-100.00,North,-999,-999.0,-999.0,-999,0.11,,,0.48,,2013-05-24 00:52:00,
2013-05-23 21:02:00,63.0,-99.9,-100.00,North,-999,-999.0,-999.0,-999,0.11,,,0.48,,2013-05-24 01:02:00,
2013-05-23 21:12:00,63.0,-99.9,-100.00,North,-999,-999.0,-999.0,-999,0.11,,,0.48,,2013-05-24 01:12:00,
2013-05-23 21:22:00,63.0,-99.9,-100.00,North,-999,-999.0,-999.0,-999,0.11,,,0.48,,2013-05-24 01:22:00,
2013-05-23 21:30:00,64.0,-99.9,-100.00,North,-999,-999.0,-999.0,-999,0.01,,,0.49,,2013-05-24 01:30:00,
2013-05-23 21:53:00,64.0,-99.9,-100.00,North,-999,-999.0,-999.0,-999,0.01,,,0.49,,2013-05-24 01:53:00,
2013-05-23 22:02:00,64.0,-99.9,-100.00,North,-999,-999.0,-999.0,-999,0.01,,,0.49,,2013-05-24 02:02:00,
2013-05-23 22:12:00,64.0,-99.9,-100.00,North,-999,-999.0,-999.0,-999,0.01,,,0.49,,2013-05-24 02:12:00,
2013-05-23 22:22:00,64.0,-99.9,-100.00,North,-999,-999.0,-999.0,-999,0.01,,,0.49,,2013-05-24 02:22:00,
2013-05-23 22:52:00,64.0,-99.9,-100.00,North,-999,-999.0,-999.0,-999,0.08,,,0.57,,2013-05-24 02:52:00,
2013-05-23 23:02:00,64.0,-99.9,-100.00,North,-999,-999.0,-999.0,-999,0.08,,,0.57,,2013-05-24 03:02:00,
2013-05-23 23:12:00,64.0,-99.9,-100.00,North,-999,-999.0,-999.0,-999,0.08,,,0.57,,2013-05-24 03:12:00,
2013-05-23 23:22:00,64.0,-99.9,-100.00,North,-999,-999.0,-999.0,-999,0.05,,,0.58,,2013-05-24 03:22:00,
2013-05-23 23:30:00,64.0,-99.9,-100.00,North,-999,-999.0,-999.0,-999,0.01,,,0.58,,2013-05-24 03:30:00,
2013-05-23 23:34:00,64.0,-99.9,-100.00,North,-999,-999.0,-999.0,-999,0.05,,,0.58,,2013-05-24 03:34:00,
2013-05-23 23:43:00,64.0,-99.9,-100.00,North,-999,-999.0,-999.0,-999,0.05,,,0.58,,2013-05-24 03:43:00,
2013-05-23 23:53:00,64.0,-99.9,-100.00,North,-999,-999.0,-999.0,-999,0.05,,,0.58,,2013-05-24 03:53:00,